COSMOS 2251 DEB, 37546

Orbit data source: Space-Track

COSMOS 2251 DEB, 37546 is space debris in LEO originally from a launch on Wed, 16 Jun 1993 UTC launched from the Plesetsk Missile And Space Complex (PKMTR). The debris from Iridium 33, an American commercial communications satellite, has been tracked extensively since its accidental collision with the defunct Russian satellite Cosmos 2251 in 2009. This event, occurring at high speed in low Earth orbit (LEO), generated thousands of pieces of space debris, significantly increasing the risk of further collisions. The Iridium 33 debris cloud has impacted space traffic management and orbital debris mitigation strategies, making it a subject of ongoing study in space situational awareness.

Loading next visibility...
Identifier
37546, 1993-036BPB
Orbit
LEO
Country
Flag of CISCIS
Related business
Manufacturer
Unknown
Mission
Spacecraft
Bus & Motor
Unknown
Mass
Unknown
Launch date (UTC)
1993-06-16 (33 years ago)
Launch vehicle
Unknown
Launch site
Plesetsk Missile And Space Complex (PKMTR)
Object type
Payload
Rocket body
Debris
Shape & HBR
Unknown shape, 0.1 m
Radar Cross Section
Small (<0.1 m²)

Expand to show TLE details & history
Last TLE update: 1 day ago

TLE from 1 day ago
0 COSMOS 2251 DEB
1 37546U 93036BPB 26218.77533642  .00007941  00000-0  85102-3 0  9992
2 37546  74.0196 346.9602 0005958 341.9521  18.1447 14.88792190694065
Epoch: 2026-08-06T18:36Z
TLE epoch observation values (Epoch: 2026-08-06T18:36:29.066Z)
Latitude
-0.00007°
Longitude
112.52853°
Altitude
600.43 km
Speed
7.562 km/s
True Right ascension
23h 07m 50s
True Declination
0° 00' 00"
Sunlit
Object was in full shadow at epoch
Visualization orbit readout
Latitude
Unknown
Longitude
Unknown
Altitude
Unknown
Speed
Unknown
Apparent Right ascension
Unknown
Apparent Declination
Unknown
Sunlit
N/A
Visualization observer readout
Local Sidereal Time
14:40:24
Azimuth
Unknown
Elevation
Unknown
Doppler factor
Unknown
Orbital elements
Apogee altitude
603.433 km
Perigee altitude
595.118 km
Semi-major axis
6,977.413 km
Eccentricity
0.0006
Inclination
74.0196°
RAAN
346.9602°
Arg. of periapsis
341.9521°
True anomaly
18.16598°
Mean anomaly
18.1447°
Eccentric anomaly
18.15534°
Mean motion
3.72393 °/min
Orbital period
96.67 mins
BSTAR
0.00085102

Documentation

Showing up to 5 results
|